This is the latest recevied weather packets stored in our database for station/object DK8HC-WX. If no packets are shown the sender has not sent any weather packets the latest 10 day(s).
| Time | Temp. | Humidity | Pressure | Rain* | Wind** | Luminosity | Snow |
|---|---|---|---|---|---|---|---|
| 1777533687 | 16.67° C | 58% | 1035.5 hPa | - | - | - | - |
| 1777533087 | 15° C | 59% | 1035.3 hPa | - | - | - | - |
| 1777532487 | 15.56° C | 63% | 1035.4 hPa | - | - | - | - |
| 1777531887 | 13.89° C | 68% | 1035.2 hPa | - | - | - | - |
| 1777530687 | 12.22° C | 67% | 1034.9 hPa | - | - | - | - |
| 1777530087 | 12.78° C | 74% | 1034.4 hPa | - | - | - | - |
| 1777529487 | 11.11° C | 84% | 1034 hPa | - | - | - | - |
| 1777528887 | 11.11° C | 88% | 1033.8 hPa | - | - | - | - |
| 1777528287 | 11.11° C | 92% | 1033.9 hPa | - | - | - | - |
| 1777527687 | 9.44° C | 99% | 1033.7 hPa | - | - | - | - |
| 1777527087 | 8.89° C | 100% | 1033.6 hPa | - | - | - | - |
| 1777526486 | 8.89° C | 100% | 1033.5 hPa | - | - | - | - |
| 1777525886 | 7.78° C | 100% | 1033.3 hPa | - | - | - | - |
| 1777525286 | 8.33° C | 100% | 1033.2 hPa | - | - | - | - |
| 1777524686 | 7.78° C | 100% | 1032.9 hPa | - | - | - | - |
| 1777524086 | 5.56° C | 100% | 1032.7 hPa | - | - | - | - |
| 1777523486 | 4.44° C | 100% | 1032.5 hPa | - | - | - | - |
| 1777522886 | 3.33° C | 100% | 1032.3 hPa | - | - | - | - |
| 1777522286 | 2.78° C | 100% | 1032.2 hPa | - | - | - | - |
| 1777521686 | 2.78° C | 100% | 1032.1 hPa | - | - | - | - |
| 1777521086 | 2.78° C | 100% | 1032.2 hPa | - | - | - | - |
| 1777520486 | 3.33° C | 100% | 1032.1 hPa | - | - | - | - |
| 1777519886 | 3.33° C | 100% | 1032.2 hPa | - | - | - | - |
| 1777519286 | 3.33° C | 100% | 1032.1 hPa | - | - | - | - |
| 1777518686 | 3.33° C | 100% | 1032.1 hPa | - | - | - | - |
* Rain since midnight (hover to see other rain measurements)
** Current wind speed in m/s (hover to see current wind gust speed)